Home > Weather > Peshawar > Past weeks

Flag for Pakistan Weather for the Past 2 Weeks in Peshawar, Pakistan

Now
52 °F

Passing clouds.


Feels Like: 51 °F
Forecast: 35 / 62 °F
Wind: 5 mph from Southwest

Location: Peshawar Airport

Current Time: Feb 12, 2016 at 11:59:00 PM

Latest Report: Feb 12, 2016 at 11:00 PM


Visibility: 2 mi

Pressure: 29.98 "Hg

Humidity: 62%

Dew point: 39 °F

Location of PeshawarLocation

Historic Weather in Peshawar — Graph

°F

Peshawar Temperature Yesterday

Maximum temperature yesterday: 54 °F (at 1:00 PM)
Minimum temperature yesterday: 45 °F (at 5:00 AM)
Average temperature yesterday: 48 °F

High & Low Weather Summary for the Past Weeks

 TemperatureHumidityPressure
High73 °F (Feb 3, 3:00 PM)94% (Feb 10, 3:00 PM)30.18 "Hg (Feb 10, 3:00 PM)
Low43 °F (Feb 2, 7:00 AM)27% (Jan 31, 2:00 PM)29.77 "Hg (Feb 10, 4:00 PM)
Average56 °F59%30.02 "Hg
* Reported Jan 28 10:00 PM — Feb 12 10:00 PM, Peshawar, Weather by CustomWeather, © 2016

Note: Actual official high and low records may vary slightly from our data, if they occured in-between our weather recording intervals... More about our weather records

Advertising

Peshawar Weather History for the Previous 24 Hours

 ConditionsComfort  
Time TempWeatherWind HumidityBarometerVisibility
10:00 PM
Fri, Feb 12
52 °FPassing clouds.5 mph67%29.98 "Hg2 mi
9:00 PM54 °FPassing clouds.5 mph63%29.98 "Hg2 mi
8:00 PM55 °FPassing clouds.No wind55%29.98 "Hg2 mi
7:00 PM55 °FPassing clouds.5 mph55%29.98 "Hg2 mi
6:00 PM59 °FPassing clouds.5 mph48%29.98 "Hg2 mi
5:00 PM61 °FPartly sunny.5 mph45%29.98 "Hg3 mi
4:00 PM61 °FPartly sunny.5 mph45%29.98 "Hg3 mi
3:00 PM61 °FPartly sunny.7 mph45%30.01 "Hg3 mi
2:00 PM59 °FPartly sunny.7 mph55%30.04 "Hg3 mi
1:00 PM57 °FScattered clouds.5 mph51%30.09 "Hg3 mi
12:00 PM57 °FScattered clouds.5 mph51%30.09 "Hg3 mi
11:00 AM54 °FScattered clouds.5 mph67%30.12 "Hg2 mi
10:00 AM52 °FHaze.5 mph72%30.12 "Hg2 mi
9:00 AM46 °FHaze.5 mph71%30.09 "Hg1 mi
8:00 AM43 °FFog.7 mph93%30.04 "Hg1 mi
7:00 AM43 °FFog.7 mph93%30.07 "Hg1 mi
6:00 AM43 °FFog.5 mph87%30.07 "Hg2 mi
5:00 AM43 °FFog.5 mph87%30.07 "Hg2 mi
4:00 AM43 °FFog.No wind87%30.07 "Hg2 mi
3:00 AM43 °FFog.No wind87%30.07 "Hg2 mi
1:00 AM45 °FFog.No wind81%30.07 "Hg2 mi
12:00 AM45 °FFog.No wind81%30.07 "Hg2 mi
11:00 PM
Thu, Feb 11
45 °FFog.No wind87%30.07 "Hg2 mi
Weather by CustomWeather, © 2016

See weather overviewHow to use our weather pages